SCOUT A DEB, 2141

Orbit data source: Space-Track

SCOUT A DEB, 2141 is space debris in LEO originally from a launch on Fri, 28 Jan 1966 UTC launched from the Air Force Western Test Range (AFWTR). Debris objects in space refer to the collection of defunct objects orbiting the Earth. Examples of debris include non-operational satellites, rocket bodies, and fragments generated from explosions, collisions, or faulty payload assembly.

Loading next visibility...
Identifier
2141, 1966-005D
Orbit
LEO
Last TLE update
12 hours ago
Origin
Manufacturer
Unknown
Mission
Spacecraft
Bus & Motor
Unknown
Mass
Unknown
Launch date (UTC)
1966-01-28 (59 years ago)
Launch vehicle
Unknown
Launch site
Air Force Western Test Range (AFWTR)
Object type
Payload
Rocket body
Debris
Shape & HBR
Unknown
Radar Cross Section
Small (<0.1 m²)

Expand to show TLE details & history

TLE from 12 hours ago
0 SCOUT A DEB
1 02141U 66005D   25181.89363194  .00000525  00000-0  29791-3 0  9998
2 02141  90.2305 249.4118 0118386  97.8519 263.6120 14.05349877 19237
Epoch: 2025-06-30T21:26Z
TLE epoch observation values (Epoch: 2025-06-30T21:26:49.799Z)
Latitude
-0.00011°
Longitude
8.5074°
Altitude
888.921 km
Speed
7.402 km/s
True Right ascension
16h 37m 38s
True Declination
0° 00' 00"
Sunlit
Object was in full shadow at epoch
Visualization orbit readout
Latitude
-17.12879°
Longitude
8.5907°
Altitude
915.107 km
Speed
7.377 km/s
Apparent Right ascension
13h 49m 16s
Apparent Declination
-43° 11' 22"
Sunlit
Object is in full shadow
Visualization observer readout
Local Sidereal Time
20:57:55
Azimuth
240.953° WSW
Elevation
-37.169°
Doppler factor
1
Orbital elements
Apogee altitude
958.132 km
Perigee altitude
786.462 km
Semi-major axis
7,250.434 km
Eccentricity
0.01184
Inclination
90.2305°
RAAN
249.4118°
Arg. of periapsis
97.8519°
True anomaly
Unknown
Mean anomaly
263.612°
Eccentric anomaly
Unknown
Mean motion
3.51558 °/min
Orbital period
102.4 mins
BSTAR
0.00029791
Loading maneuver chart data...
Loading SW <> Apogee altitude chart data...
Loading historical data...
Loading historical data...
Loading historical data...
Loading historical data...
Loading historical data...
Loading historical data...
Loading historical data...

SCOUT A DEB Visibility forecast

Observer location: undefined°, undefined°

Span
Click to sort rows by Start time (UTC) header in descending order
Start Az.
Max El. time (UTC)
Max El. Az.
Max El.
End time (UTC)
End Az.
10 mins2025-07-01 16:48:39.625Z4.503° NNE2025-07-01 16:53:39.625Z53.61° ENE44.467°2025-07-01 16:58:39.625Z180.052° SSW
9 mins2025-07-02 04:19:39.625Z149.026° SSE2025-07-02 04:23:39.625Z86.425° E35.537°2025-07-02 04:28:39.625Z11.063° NNE
6 mins2025-07-02 06:03:39.625Z242.54° WSW2025-07-02 06:06:39.625Z283.332° WNW18.994°2025-07-02 06:09:39.625Z320.486° NNW
|